Hourly Weather Brasília

Today, 26 September, Saturday

Time Temperature Precipitation Wind Pressure Humidity
00:00 +23°C° 0 mm 2 mps 666 mmHg 39%
01:00 +21°C° 0 mm 2 mps 666 mmHg 40%
02:00 +21°C° 0 mm 2 mps 665 mmHg 41%
03:00 +20°C° 0 mm 2 mps 665 mmHg 41%
04:00 +20°C° 0 mm 2 mps 665 mmHg 45%
05:00 +19°C° 0 mm 3 mps 665 mmHg 48%
06:00 +19°C° 0 mm 3 mps 665 mmHg 52%
07:00 +21°C° 0 mm 3 mps 666 mmHg 49%
08:00 +23°C° 0 mm 4 mps 667 mmHg 45%
09:00 +26°C° 0 mm 4 mps 668 mmHg 41%
10:00 +28°C° 0 mm 3 mps 668 mmHg 34%
11:00 +30°C° 0 mm 3 mps 668 mmHg 28%
12:00 +32°C° 0 mm 2 mps 668 mmHg 21%
13:00 +34°C° 0 mm 2 mps 668 mmHg 20%
14:00 +34°C° 0 mm 2 mps 667 mmHg 18%
15:00 +35°C° 0 mm 2 mps 666 mmHg 17%
16:00 +32°C° 0 mm 2 mps 666 mmHg 20%
17:00 +30°C° 0 mm 2 mps 665 mmHg 22%
18:00 +29°C° 0 mm 2 mps 664 mmHg 25%
19:00 +28°C° 0 mm 2 mps 665 mmHg 27%
20:00 +26°C° 0 mm 2 mps 665 mmHg 29%
21:00 +25°C° 0 mm 2 mps 665 mmHg 31%
22:00 +25°C° 0 mm 2 mps 665 mmHg 33%
23:00 +24°C° 0 mm 2 mps 665 mmHg 34%

Tomorrow, 27 September, Sunday

Time Temperature Precipitation Wind Pressure Humidity
00:00 +23°C° 0 mm 2 mps 665 mmHg 35%
01:00 +23°C° 0 mm 2 mps 664 mmHg 36%
02:00 +21°C° 0 mm 2 mps 664 mmHg 37%
03:00 +21°C° 0 mm 2 mps 664 mmHg 37%
04:00 +20°C° 0 mm 2 mps 664 mmHg 37%
05:00 +20°C° 0 mm 2 mps 664 mmHg 38%
06:00 +20°C° 0 mm 2 mps 665 mmHg 38%
07:00 +22°C° 0 mm 3 mps 666 mmHg 35%
08:00 +25°C° 0 mm 3 mps 666 mmHg 31%
09:00 +27°C° 0 mm 4 mps 667 mmHg 28%
10:00 +29°C° 0 mm 3 mps 668 mmHg 25%
11:00 +31°C° 0 mm 2 mps 668 mmHg 21%
12:00 +35°C° 0 mm 2 mps 668 mmHg 18%
13:00 +34°C° 0 mm 1 mps 667 mmHg 16%
14:00 +35°C° 0 mm 1 mps 667 mmHg 15%
15:00 +34°C° 0 mm 0 mps 666 mmHg 14%
16:00 +34°C° 0 mm 1 mps 665 mmHg 16%
17:00 +32°C° 0 mm 1 mps 665 mmHg 18%
18:00 +30°C° 0 mm 1 mps 664 mmHg 20%
19:00 +29°C° 0 mm 1 mps 665 mmHg 21%
20:00 +28°C° 0 mm 1 mps 665 mmHg 23%
21:00 +26°C° 0 mm 1 mps 665 mmHg 24%
22:00 +26°C° 0 mm 1 mps 665 mmHg 25%
23:00 +25°C° 0 mm 1 mps 665 mmHg 27%

Day after tomorrow, 28 September, Monday

Time Temperature Precipitation Wind Pressure Humidity
00:00 +24°C° 0 mm 1 mps 665 mmHg 28%
01:00 +24°C° 0 mm 1 mps 665 mmHg 28%
02:00 +24°C° 0 mm 1 mps 664 mmHg 28%
03:00 +24°C° 0 mm 1 mps 664 mmHg 29%
04:00 +23°C° 0 mm 1 mps 664 mmHg 29%
05:00 +23°C° 0 mm 1 mps 664 mmHg 30%
06:00 +21°C° 0 mm 2 mps 664 mmHg 31%
07:00 +25°C° 0 mm 2 mps 665 mmHg 28%
08:00 +27°C° 0 mm 3 mps 666 mmHg 25%
09:00 +30°C° 0 mm 4 mps 667 mmHg 22%
10:00 +33°C° 0 mm 3 mps 667 mmHg 19%
11:00 +35°C° 0 mm 2 mps 667 mmHg 16%
12:00 +37°C° 0 mm 2 mps 668 mmHg 13%
13:00 +37°C° 0 mm 2 mps 667 mmHg 13%
14:00 +37°C° 0 mm 2 mps 666 mmHg 12%
15:00 +38°C° 0 mm 2 mps 665 mmHg 12%
16:00 +36°C° 0 mm 2 mps 665 mmHg 13%
17:00 +34°C° 0 mm 2 mps 665 mmHg 15%
18:00 +31°C° 0 mm 2 mps 664 mmHg 17%
19:00 +30°C° 0 mm 2 mps 664 mmHg 18%
20:00 +29°C° 0 mm 2 mps 665 mmHg 19%
21:00 +27°C° 0 mm 1 mps 665 mmHg 20%
22:00 +27°C° 0 mm 2 mps 665 mmHg 20%
23:00 +26°C° 0 mm 2 mps 665 mmHg 20%

29 September, Tuesday

Time Temperature Precipitation Wind Pressure Humidity
00:00 +26°C° 0 mm 2 mps 665 mmHg 20%
01:00 +26°C° 0 mm 2 mps 664 mmHg 21%
02:00 +25°C° 0 mm 1 mps 664 mmHg 22%
03:00 +25°C° 0 mm 1 mps 664 mmHg 23%
04:00 +24°C° 0 mm 2 mps 664 mmHg 24%
05:00 +23°C° 0 mm 2 mps 664 mmHg 25%
06:00 +22°C° 0 mm 3 mps 664 mmHg 26%
07:00 +26°C° 0 mm 3 mps 665 mmHg 24%
08:00 +28°C° 0 mm 4 mps 666 mmHg 22%
09:00 +32°C° 0 mm 4 mps 668 mmHg 20%
10:00 +34°C° 0 mm 4 mps 667 mmHg 18%
11:00 +35°C° 0 mm 4 mps 667 mmHg 15%
12:00 +37°C° 0 mm 4 mps 667 mmHg 13%
13:00 +37°C° 0 mm 4 mps 667 mmHg 13%
14:00 +38°C° 0 mm 4 mps 666 mmHg 12%
15:00 +38°C° 0 mm 4 mps 666 mmHg 12%
16:00 +36°C° 0 mm 3 mps 665 mmHg 14%
17:00 +35°C° 0 mm 3 mps 665 mmHg 16%
18:00 +32°C° 0 mm 2 mps 665 mmHg 17%
19:00 +31°C° 0 mm 2 mps 665 mmHg 19%
20:00 +29°C° 0 mm 2 mps 665 mmHg 20%
21:00 +28°C° 0 mm 3 mps 665 mmHg 21%
22:00 +28°C° 0 mm 3 mps 665 mmHg 22%
23:00 +27°C° 0 mm 3 mps 666 mmHg 23%

30 September, Wednesday

Time Temperature Precipitation Wind Pressure Humidity
00:00 +27°C° 0 mm 3 mps 666 mmHg 23%
01:00 +26°C° 0 mm 3 mps 665 mmHg 25%
02:00 +25°C° 0 mm 4 mps 665 mmHg 27%
03:00 +23°C° 0 mm 4 mps 665 mmHg 29%
04:00 +22°C° 0 mm 4 mps 665 mmHg 32%
05:00 +22°C° 0 mm 4 mps 665 mmHg 36%
06:00 +21°C° 0 mm 3 mps 665 mmHg 39%
07:00 +23°C° 0 mm 4 mps 666 mmHg 38%
08:00 +26°C° 0 mm 4 mps 667 mmHg 37%
09:00 +28°C° 0 mm 5 mps 668 mmHg 36%
10:00 +30°C° 0 mm 5 mps 668 mmHg 30%
11:00 +33°C° 0 mm 5 mps 668 mmHg 25%
12:00 +35°C° 0 mm 5 mps 668 mmHg 19%
13:00 +35°C° 0 mm 4 mps 667 mmHg 17%
14:00 +36°C° 0 mm 4 mps 667 mmHg 16%
15:00 +36°C° 0 mm 4 mps 666 mmHg 15%
16:00 +35°C° 0 mm 4 mps 666 mmHg 16%
17:00 +33°C° 0 mm 3 mps 665 mmHg 18%
18:00 +30°C° 0 mm 3 mps 665 mmHg 19%
19:00 +29°C° 0 mm 3 mps 665 mmHg 21%
20:00 +28°C° 0 mm 3 mps 665 mmHg 23%
21:00 +27°C° 0 mm 3 mps 666 mmHg 25%
22:00 +26°C° 0 mm 3 mps 666 mmHg 27%
23:00 +25°C° 0 mm 3 mps 666 mmHg 29%

1 October, Thursday

Time Temperature Precipitation Wind Pressure Humidity
00:00 +24°C° 0 mm 3 mps 665 mmHg 31%
01:00 +24°C° 0 mm 3 mps 665 mmHg 32%
02:00 +24°C° 0 mm 2 mps 665 mmHg 34%
03:00 +23°C° 0 mm 2 mps 665 mmHg 35%
04:00 +22°C° 0 mm 3 mps 665 mmHg 38%
05:00 +21°C° 0 mm 3 mps 665 mmHg 40%
06:00 +21°C° 0 mm 4 mps 665 mmHg 42%
07:00 +23°C° 0 mm 4 mps 666 mmHg 40%
08:00 +26°C° 0 mm 4 mps 667 mmHg 37%
09:00 +28°C° 0 mm 5 mps 668 mmHg 34%
10:00 +30°C° 0 mm 4 mps 668 mmHg 29%
11:00 +33°C° 0 mm 3 mps 668 mmHg 25%
12:00 +35°C° 0 mm 3 mps 668 mmHg 20%
13:00 +36°C° 0 mm 3 mps 667 mmHg 19%
14:00 +36°C° 0 mm 2 mps 667 mmHg 17%
15:00 +37°C° 0 mm 2 mps 666 mmHg 16%
16:00 +35°C° 0 mm 2 mps 665 mmHg 18%
17:00 +34°C° 0 mm 2 mps 665 mmHg 21%
18:00 +31°C° 0 mm 2 mps 665 mmHg 23%
19:00 +30°C° 0 mm 2 mps 665 mmHg 25%
20:00 +28°C° 0 mm 2 mps 665 mmHg 28%
21:00 +27°C° 0 mm 1 mps 665 mmHg 30%
22:00 +26°C° 0 mm 2 mps 665 mmHg 31%
23:00 +26°C° 0 mm 2 mps 665 mmHg 32%
Show more